M I D A S
Marine Information and Data Acquisition System
Tripno 1883 of the Zeeleeuw from 2010-05-17 06:33:20 to 2010-05-17 16:14:12
Back to CruiseResearch ActivitiesStationsMapUnderway DataData graphs

EquipmentUnitsComments
TimeDGPSUTC
LatitudeDGPSDM.mWGS84
LongitudeDGPSDM.mWGS84
SpeedMeteo Stationm/sRelative wind speed
DirectionMeteo StationdegRelative wind direction
TemperatureMeteo Stationdeg CelciusAir temperature
PressureMeteo StationPaAtmospheric pressure
HumidityMeteo Station%Relative humidity
Missing or incorrect values are displayed as -999
Metereological data collected by the RV Zeeleeuw from 2010-05-17 06:19:13 to 2010-05-17 16:23:30
                                                                                    Next 1000 lines
Time Latitude Longitude Speed Direction Temperature Pressure Humidity
2010-05-17 06:19:22 51°13.662 2°55.96 3.3 34 11.4 102020 37
2010-05-17 06:19:28 51°13.662 2°55.96 3.5 26 11.4 102020 40
2010-05-17 06:19:32 51°13.662 2°55.96 2.7 40 11.4 102020 40
2010-05-17 06:19:37 51°13.662 2°55.96 3.5 35 11.4 102020 37
2010-05-17 06:19:42 51°13.662 2°55.96 4.3 35 11.4 102020 37
2010-05-17 06:19:47 51°13.662 2°55.961 3.7 38 11.4 102030 36
2010-05-17 06:19:52 51°13.662 2°55.96 2.9 32 11.4 102030 36
2010-05-17 06:19:57 51°13.662 2°55.96 3.1 33 11.4 102020 37
2010-05-17 06:20:02 51°13.662 2°55.96 2.9 33 11.4 102020 37
2010-05-17 06:20:07 51°13.662 2°55.96 3 32 11.4 102020 39
2010-05-17 06:20:12 51°13.662 2°55.96 3.4 32 11.4 102020 39
2010-05-17 06:20:17 51°13.662 2°55.96 3.6 26 11.4 102020 39
2010-05-17 06:20:22 51°13.662 2°55.96 3.9 40 11.4 102020 39
2010-05-17 06:20:27 51°13.662 2°55.961 3.7 38 11.4 102030 36
2010-05-17 06:20:32 51°13.662 2°55.961 2.9 30 11.4 102030 36
2010-05-17 06:20:37 51°13.662 2°55.96 3.4 39 11.4 102030 37
2010-05-17 06:20:42 51°13.662 2°55.96 4.2 35 11.4 102030 37
2010-05-17 06:20:47 51°13.662 2°55.96 4.6 44 11.4 102030 36
2010-05-17 06:20:52 51°13.662 2°55.96 4.6 39 11.4 102030 36
2010-05-17 06:20:57 51°13.662 2°55.96 4.7 35 11.4 102030 36
2010-05-17 06:21:02 51°13.662 2°55.96 3.9 38 11.4 102030 36
2010-05-17 06:21:07 51°13.662 2°55.96 3.6 37 11.4 102030 39
2010-05-17 06:21:12 51°13.662 2°55.96 3.3 32 11.4 102030 39
2010-05-17 06:21:17 51°13.662 2°55.96 3.3 40 11.4 102030 37
2010-05-17 06:21:22 51°13.662 2°55.961 3.9 41 11.4 102030 37
2010-05-17 06:21:27 51°13.662 2°55.961 4.7 40 11.4 102030 40
2010-05-17 06:21:32 51°13.662 2°55.961 4.3 44 11.4 102030 40
2010-05-17 06:21:37 51°13.662 2°55.961 3.9 43 11.4 102030 40
2010-05-17 06:21:42 51°13.662 2°55.961 3.2 40 11.4 102030 40
2010-05-17 06:21:47 51°13.661 2°55.961 3.8 42 11.4 102030 36
2010-05-17 06:21:52 51°13.661 2°55.96 3.2 42 11.4 102030 36
2010-05-17 06:21:57 51°13.661 2°55.96 3 40 11.4 102030 36
2010-05-17 06:22:02 51°13.661 2°55.959 3.3 34 11.4 102030 36
2010-05-17 06:22:07 51°13.661 2°55.96 2.7 40 11.4 102030 36
2010-05-17 06:22:12 51°13.661 2°55.96 2.7 31 11.4 102030 36
2010-05-17 06:22:17 51°13.661 2°55.96 2.7 33 11.4 102030 36
2010-05-17 06:22:22 51°13.661 2°55.96 3 43 11.4 102030 36
2010-05-17 06:22:27 51°13.661 2°55.96 3.5 44 11.4 102030 38
2010-05-17 06:22:32 51°13.661 2°55.96 3.1 39 11.4 102030 38
2010-05-17 06:22:37 51°13.661 2°55.96 3.1 38 11.4 102030 36
2010-05-17 06:22:42 51°13.661 2°55.96 2.8 32 11.4 102030 36
2010-05-17 06:22:47 51°13.661 2°55.96 2.7 24 11.4 102030 40
2010-05-17 06:22:52 51°13.661 2°55.96 3.2 43 11.4 102030 40
2010-05-17 06:22:57 51°13.661 2°55.96 3.2 39 11.4 102030 38
2010-05-17 06:23:02 51°13.661 2°55.96 2.7 36 11.4 102030 38
2010-05-17 06:23:07 51°13.661 2°55.96 2.6 41 11.4 102030 39
2010-05-17 06:23:12 51°13.661 2°55.96 3.8 44 11.4 102030 39
2010-05-17 06:23:17 51°13.661 2°55.96 4.1 43 11.4 102030 36
2010-05-17 06:23:22 51°13.661 2°55.96 3.1 44 11.4 102030 36
2010-05-17 06:23:27 51°13.661 2°55.96 3 36 11.4 102030 40
2010-05-17 06:23:32 51°13.661 2°55.96 3.5 42 11.4 102030 40
2010-05-17 06:23:37 51°13.661 2°55.96 2.2 35 11.4 102030 36
2010-05-17 06:23:42 51°13.661 2°55.96 3.6 38 11.4 102030 36
2010-05-17 06:23:47 51°13.661 2°55.96 3.2 39 11.4 102030 36
2010-05-17 06:23:52 51°13.661 2°55.96 2.8 32 11.4 102030 36
2010-05-17 06:23:57 51°13.662 2°55.96 2 38 11.4 102030 36
2010-05-17 06:24:02 51°13.662 2°55.96 3.1 39 11.4 102030 36
2010-05-17 06:24:07 51°13.662 2°55.96 3.1 37 11.4 102030 39
2010-05-17 06:24:12 51°13.662 2°55.96 3 39 11.4 102030 39
2010-05-17 06:24:17 51°13.662 2°55.96 2.2 36 11.4 102040 37
2010-05-17 06:24:22 51°13.662 2°55.96 1.9 39 11.4 102040 37
2010-05-17 06:24:27 51°13.662 2°55.96 2.8 36 11.4 102030 37
2010-05-17 06:24:32 51°13.662 2°55.96 1.6 43 11.4 102030 37
2010-05-17 06:24:37 51°13.662 2°55.96 3.5 37 11.4 102030 36
2010-05-17 06:24:42 51°13.662 2°55.96 3.4 33 11.4 102030 36
2010-05-17 06:24:47 51°13.662 2°55.96 3.3 29 11.4 102040 40
2010-05-17 06:24:52 51°13.662 2°55.96 4.2 35 11.4 102040 40
2010-05-17 06:24:57 51°13.662 2°55.961 3.7 21 11.4 102040 37
2010-05-17 06:25:02 51°13.662 2°55.96 3.3 40 11.4 102040 37
2010-05-17 06:25:07 51°13.662 2°55.96 3.1 33 11.4 102030 36
2010-05-17 06:25:12 51°13.662 2°55.96 2.6 28 11.4 102030 36
2010-05-17 06:25:17 51°13.662 2°55.96 2.6 35 11.4 102030 40
2010-05-17 06:25:22 51°13.662 2°55.96 2.8 42 11.4 102030 40
2010-05-17 06:25:27 51°13.662 2°55.96 2.8 41 11.4 102040 38
2010-05-17 06:25:32 51°13.662 2°55.96 4.2 44 11.4 102040 38
2010-05-17 06:25:37 51°13.662 2°55.96 3.6 25 11.4 102030 40
2010-05-17 06:25:42 51°13.662 2°55.96 3.7 42 11.4 102030 40
2010-05-17 06:25:47 51°13.662 2°55.96 3.4 39 11.4 102030 38
2010-05-17 06:25:52 51°13.662 2°55.96 2.7 32 11.4 102030 38
2010-05-17 06:25:57 51°13.662 2°55.96 2.9 19 11.4 102040 36
2010-05-17 06:26:02 51°13.662 2°55.96 3.4 42 11.4 102040 36
2010-05-17 06:26:07 51°13.662 2°55.961 3.6 32 11.3 102040 38
2010-05-17 06:26:12 51°13.662 2°55.96 3.4 38 11.3 102040 38
2010-05-17 06:26:17 51°13.662 2°55.961 3.2 41 11.3 102030 38
2010-05-17 06:26:22 51°13.662 2°55.961 3.4 35 11.3 102030 38
2010-05-17 06:26:27 51°13.662 2°55.961 3.2 44 11.3 102030 40
2010-05-17 06:26:32 51°13.662 2°55.961 2.2 38 11.3 102030 40
2010-05-17 06:26:37 51°13.662 2°55.961 1.4 22 11.4 102030 39
2010-05-17 06:26:42 51°13.662 2°55.961 2 39 11.4 102030 39
2010-05-17 06:26:47 51°13.662 2°55.961 2.2 37 11.3 102040 39
2010-05-17 06:26:52 51°13.662 2°55.961 3 43 11.3 102040 39
2010-05-17 06:26:57 51°13.662 2°55.961 2.5 28 11.3 102040 37
2010-05-17 06:27:02 51°13.662 2°55.961 2.4 35 11.3 102040 37
2010-05-17 06:27:07 51°13.662 2°55.961 3 21 11.3 102040 40
2010-05-17 06:27:12 51°13.662 2°55.961 2.8 38 11.3 102040 40
2010-05-17 06:27:17 51°13.662 2°55.961 3 41 11.4 102030 36
2010-05-17 06:27:22 51°13.662 2°55.961 2 37 11.4 102030 36
2010-05-17 06:27:27 51°13.662 2°55.961 1.8 19 11.3 102040 37
2010-05-17 06:27:32 51°13.662 2°55.961 1.8 39 11.3 102040 37
2010-05-17 06:27:37 51°13.662 2°55.96 1.8 41 11.4 102040 37
2010-05-17 06:27:42 51°13.662 2°55.96 2.4 33 11.4 102040 37
2010-05-17 06:27:47 51°13.662 2°55.96 2.1 35 11.4 102040 40
2010-05-17 06:27:52 51°13.662 2°55.96 1.2 38 11.4 102040 40
2010-05-17 06:27:57 51°13.662 2°55.961 1.6 42 11.4 102040 37
2010-05-17 06:28:01 51°13.662 2°55.961 1.1 42 11.4 102040 37
2010-05-17 06:28:06 51°13.662 2°55.961 1.5 23 11.4 102040 38
2010-05-17 06:28:11 51°13.662 2°55.961 2.4 35 11.4 102040 38
2010-05-17 06:28:16 51°13.662 2°55.961 2.1 38 11.4 102040 36
2010-05-17 06:28:21 51°13.662 2°55.961 2.9 34 11.4 102040 36
2010-05-17 06:28:25 51°13.662 2°55.961 2.4 19 11.4 102030 39
2010-05-17 06:28:30 51°13.662 2°55.961 1.3 31 11.4 102030 39
2010-05-17 06:28:35 51°13.662 2°55.961 1.4 31 11.4 102040 37
2010-05-17 06:28:40 51°13.662 2°55.961 1.3 39 11.4 102040 37
2010-05-17 06:28:45 51°13.661 2°55.961 1.9 39 11.4 102040 40
2010-05-17 06:28:50 51°13.661 2°55.961 2 33 11.4 102040 40
2010-05-17 06:28:55 51°13.661 2°55.96 1.8 39 11.4 102040 40
2010-05-17 06:29:00 51°13.661 2°55.96 1.8 34 11.4 102040 40
2010-05-17 06:29:04 51°13.662 2°55.96 1.4 43 11.4 102040 37
2010-05-17 06:29:09 51°13.662 2°55.96 0.8 23 11.4 102040 37
2010-05-17 06:29:14 51°13.662 2°55.96 0.3 20 11.4 102040 39
2010-05-17 06:29:19 51°13.662 2°55.96 0.1 41 11.4 102040 39
2010-05-17 06:29:24 51°13.662 2°55.96 0.1 41 11.4 102040 40
2010-05-17 06:29:29 51°13.662 2°55.96 -999 35 11.4 102040 40
2010-05-17 06:29:34 51°13.662 2°55.96 -999 41 11.4 102040 38
2010-05-17 06:29:39 51°13.662 2°55.96 0.1 45 11.4 102040 38
2010-05-17 06:29:44 51°13.662 2°55.96 0.4 43 11.5 102040 38
2010-05-17 06:29:49 51°13.662 2°55.96 2.6 38 11.5 102040 38
2010-05-17 06:29:53 51°13.662 2°55.96 2.9 36 11.5 102040 38
2010-05-17 06:29:58 51°13.662 2°55.96 3.3 39 11.5 102040 38
2010-05-17 06:30:03 51°13.662 2°55.961 3.6 40 11.4 102040 40
2010-05-17 06:30:08 51°13.662 2°55.961 2.8 42 11.4 102040 40
2010-05-17 06:30:13 51°13.662 2°55.961 3.3 41 11.4 102040 40
2010-05-17 06:30:18 51°13.662 2°55.961 2.1 33 11.4 102040 40
2010-05-17 06:30:23 51°13.662 2°55.961 1.3 24 11.4 102040 37
2010-05-17 06:30:28 51°13.662 2°55.961 1.4 28 11.4 102040 37
2010-05-17 06:30:33 51°13.662 2°55.961 1.3 43 11.4 102040 37
2010-05-17 06:30:37 51°13.662 2°55.961 1.5 38 11.4 102040 37
2010-05-17 06:30:43 51°13.662 2°55.961 1.7 40 11.4 102040 37
2010-05-17 06:30:48 51°13.662 2°55.961 2.5 38 11.4 102040 37
2010-05-17 06:30:53 51°13.663 2°55.961 2.7 35 11.4 102040 36
2010-05-17 06:30:57 51°13.663 2°55.961 1.7 33 11.4 102040 36
2010-05-17 06:31:03 51°13.662 2°55.961 1.3 32 11.4 102040 38
2010-05-17 06:31:08 51°13.662 2°55.961 3.1 35 11.4 102040 38
2010-05-17 06:31:13 51°13.662 2°55.961 2.9 32 11.4 102040 37
2010-05-17 06:31:17 51°13.662 2°55.961 1.9 43 11.4 102040 37
2010-05-17 06:31:23 51°13.662 2°55.961 1.6 32 11.4 102040 36
2010-05-17 06:31:28 51°13.662 2°55.96 1.1 41 11.4 102040 36
2010-05-17 06:31:33 51°13.662 2°55.96 1.4 21 11.4 102040 36
2010-05-17 06:31:37 51°13.662 2°55.96 0.9 41 11.4 102040 36
2010-05-17 06:31:43 51°13.662 2°55.96 1.7 39 11.4 102040 40
2010-05-17 06:31:48 51°13.661 2°55.96 2.4 38 11.4 102040 40
2010-05-17 06:31:53 51°13.662 2°55.96 2 39 11.4 102040 35
2010-05-17 06:31:58 51°13.662 2°55.96 2.3 36 11.4 102040 35
2010-05-17 06:32:03 51°13.663 2°55.96 1.8 41 11.4 102040 39
2010-05-17 06:32:08 51°13.663 2°55.96 2.4 30 11.4 102040 39
2010-05-17 06:32:13 51°13.662 2°55.96 2.8 24 11.4 102040 37
2010-05-17 06:32:18 51°13.662 2°55.96 2.5 26 11.4 102040 37
2010-05-17 06:32:23 51°13.662 2°55.96 2.3 28 11.4 102040 36
2010-05-17 06:32:28 51°13.662 2°55.96 2.8 34 11.4 102040 36
2010-05-17 06:32:33 51°13.662 2°55.96 3.1 38 11.4 102040 38
2010-05-17 06:32:38 51°13.662 2°55.96 1.9 35 11.4 102040 38
2010-05-17 06:32:43 51°13.662 2°55.96 1.9 26 11.4 102040 38
2010-05-17 06:32:48 51°13.662 2°55.96 1.4 37 11.4 102040 38
2010-05-17 06:32:53 51°13.663 2°55.96 1.8 39 11.4 102040 37
2010-05-17 06:32:59 51°13.663 2°55.96 1.1 40 11.4 102040 37
2010-05-17 06:33:04 51°13.663 2°55.961 1 42 11.4 102040 41
2010-05-17 06:33:08 51°13.663 2°55.961 2.7 37 11.4 102040 41
2010-05-17 06:33:14 51°13.663 2°55.961 2.5 20 11.4 102040 37
2010-05-17 06:33:18 51°13.662 2°55.961 3.3 33 11.4 102040 37
2010-05-17 06:33:24 51°13.662 2°55.961 3.2 25 11.5 102040 41
2010-05-17 06:33:28 51°13.662 2°55.961 3.3 36 11.5 102040 41
2010-05-17 06:33:34 51°13.662 2°55.961 3.3 20 11.4 102050 40
2010-05-17 06:33:38 51°13.662 2°55.961 3.7 37 11.4 102050 40
2010-05-17 06:33:44 51°13.662 2°55.961 3.9 23 11.5 102050 35
2010-05-17 06:33:48 51°13.662 2°55.961 4.8 33 11.5 102050 35
2010-05-17 06:33:54 51°13.662 2°55.961 4.3 28 11.5 102050 40
2010-05-17 06:33:58 51°13.662 2°55.961 4 40 11.5 102050 40
2010-05-17 06:34:04 51°13.662 2°55.961 4.1 27 11.5 102050 36
2010-05-17 06:34:08 51°13.662 2°55.961 3.9 31 11.5 102050 36
2010-05-17 06:34:14 51°13.662 2°55.961 3.8 23 11.4 102050 37
2010-05-17 06:34:18 51°13.662 2°55.961 3.5 35 11.4 102050 37
2010-05-17 06:34:24 51°13.662 2°55.961 4.7 27 11.4 102050 40
2010-05-17 06:34:28 51°13.662 2°55.961 3.8 32 11.4 102050 40
2010-05-17 06:34:34 51°13.662 2°55.961 4.7 20 11.4 102050 39
2010-05-17 06:34:38 51°13.662 2°55.961 3.6 33 11.4 102050 39
2010-05-17 06:34:44 51°13.662 2°55.961 4 22 11.4 102050 36
2010-05-17 06:34:48 51°13.662 2°55.961 5.1 38 11.4 102050 36
2010-05-17 06:34:54 51°13.662 2°55.961 4.1 43 11.4 102050 39
2010-05-17 06:34:58 51°13.662 2°55.961 4.3 33 11.4 102050 39
2010-05-17 06:35:04 51°13.662 2°55.961 4.1 19 11.4 102050 39
2010-05-17 06:35:09 51°13.662 2°55.961 3.4 42 11.4 102050 39
2010-05-17 06:35:14 51°13.663 2°55.961 3.7 42 11.4 102050 39
2010-05-17 06:35:18 51°13.663 2°55.961 2.7 40 11.4 102050 39
2010-05-17 06:35:24 51°13.663 2°55.961 2.5 44 11.4 102050 37
2010-05-17 06:35:29 51°13.663 2°55.961 3.7 38 11.4 102050 37
2010-05-17 06:35:34 51°13.663 2°55.961 3.2 36 11.4 102050 37
2010-05-17 06:35:38 51°13.663 2°55.961 2.7 41 11.4 102050 37
2010-05-17 06:35:44 51°13.663 2°55.96 3 41 11.4 102050 39
2010-05-17 06:35:48 51°13.663 2°55.96 3.2 45 11.4 102050 39
2010-05-17 06:35:54 51°13.663 2°55.96 3.1 21 11.4 102050 36
2010-05-17 06:35:58 51°13.663 2°55.96 3.7 38 11.4 102050 36
2010-05-17 06:36:04 51°13.663 2°55.96 3.6 36 11.4 102050 38
2010-05-17 06:36:08 51°13.663 2°55.96 4.2 32 11.4 102050 38
2010-05-17 06:36:14 51°13.663 2°55.96 3.9 28 11.4 102050 36
2010-05-17 06:36:18 51°13.663 2°55.96 4.4 30 11.4 102050 36
2010-05-17 06:36:24 51°13.663 2°55.96 4.4 33 11.4 102050 38
2010-05-17 06:36:28 51°13.663 2°55.96 3.5 34 11.4 102050 38
2010-05-17 06:36:34 51°13.663 2°55.96 3.9 35 11.4 102050 40
2010-05-17 06:36:38 51°13.663 2°55.96 4.2 31 11.4 102050 40
2010-05-17 06:36:44 51°13.663 2°55.96 4.1 30 11.4 102050 39
2010-05-17 06:36:48 51°13.663 2°55.96 3 35 11.4 102050 39
2010-05-17 06:36:54 51°13.663 2°55.96 3 30 11.4 102050 37
2010-05-17 06:36:58 51°13.663 2°55.96 3.9 37 11.4 102050 37
2010-05-17 06:37:04 51°13.663 2°55.96 3.5 44 11.4 102050 40
2010-05-17 06:37:08 51°13.663 2°55.96 3.3 37 11.4 102050 40
2010-05-17 06:37:14 51°13.663 2°55.96 3.6 19 11.4 102050 36
2010-05-17 06:37:18 51°13.663 2°55.96 3.2 33 11.4 102050 36
2010-05-17 06:37:24 51°13.663 2°55.96 3.1 26 11.4 102050 39
2010-05-17 06:37:28 51°13.663 2°55.96 2.9 37 11.4 102050 39
2010-05-17 06:37:34 51°13.663 2°55.961 3.1 38 11.4 102050 37
2010-05-17 06:37:38 51°13.663 2°55.961 2.5 35 11.4 102050 37
2010-05-17 06:37:44 51°13.663 2°55.961 3 35 11.4 102050 37
2010-05-17 06:37:48 51°13.663 2°55.961 2.8 33 11.4 102050 37
2010-05-17 06:37:54 51°13.663 2°55.961 2.5 34 11.4 102050 37
2010-05-17 06:37:58 51°13.663 2°55.961 2.3 34 11.4 102050 37
2010-05-17 06:38:04 51°13.663 2°55.961 1.8 35 11.4 102050 40
2010-05-17 06:38:08 51°13.663 2°55.961 2.2 22 11.4 102050 40
2010-05-17 06:38:14 51°13.663 2°55.961 3 37 11.4 102050 36
2010-05-17 06:38:19 51°13.663 2°55.961 2.4 34 11.4 102050 36
2010-05-17 06:38:24 51°13.663 2°55.961 2.5 24 11.4 102050 39
2010-05-17 06:38:29 51°13.663 2°55.961 2 26 11.4 102050 39
2010-05-17 06:38:34 51°13.663 2°55.961 2 28 11.4 102050 37
2010-05-17 06:38:39 51°13.662 2°55.96 2.5 34 11.4 102050 37
2010-05-17 06:38:44 51°13.662 2°55.96 2.4 44 11.4 102050 40
2010-05-17 06:38:48 51°13.662 2°55.96 2.2 41 11.4 102050 40
2010-05-17 06:38:54 51°13.662 2°55.96 2.5 43 11.4 102050 39
2010-05-17 06:38:58 51°13.662 2°55.96 1.9 35 11.4 102050 39
2010-05-17 06:39:04 51°13.662 2°55.96 1.3 23 11.4 102050 35
2010-05-17 06:39:09 51°13.662 2°55.96 1.7 40 11.4 102050 35
2010-05-17 06:39:14 51°13.662 2°55.96 1.3 38 11.4 102050 40
2010-05-17 06:39:18 51°13.662 2°55.96 1.1 40 11.4 102050 40
2010-05-17 06:39:24 51°13.662 2°55.96 1.3 24 11.4 102050 39
2010-05-17 06:39:28 51°13.662 2°55.959 0.6 33 11.4 102050 39
2010-05-17 06:39:34 51°13.662 2°55.958 0.3 28 11.4 102050 40
2010-05-17 06:39:38 51°13.663 2°55.957 0.2 33 11.4 102050 40
2010-05-17 06:39:44 51°13.664 2°55.954 1.7 22 11.4 102050 36
2010-05-17 06:39:48 51°13.664 2°55.952 2 34 11.4 102050 36
2010-05-17 06:39:54 51°13.665 2°55.948 2.4 29 11.4 102050 38
2010-05-17 06:39:59 51°13.666 2°55.944 2.5 34 11.4 102050 38
2010-05-17 06:40:05 51°13.668 2°55.94 3.1 23 11.4 102050 37
2010-05-17 06:40:10 51°13.669 2°55.935 2.1 33 11.4 102050 37
2010-05-17 06:40:16 51°13.671 2°55.929 3.5 22 11.4 102050 39
2010-05-17 06:40:22 51°13.673 2°55.922 3.4 40 11.4 102050 39
2010-05-17 06:40:27 51°13.674 2°55.916 3.2 24 11.4 102050 38
2010-05-17 06:40:32 51°13.676 2°55.91 4.5 33 11.4 102050 38
2010-05-17 06:40:38 51°13.677 2°55.902 4.7 22 11.5 102050 40
2010-05-17 06:40:42 51°13.679 2°55.896 5 34 11.5 102050 40
2010-05-17 06:40:48 51°13.68 2°55.887 4.2 29 11.5 102050 37
2010-05-17 06:40:52 51°13.681 2°55.881 3.9 37 11.5 102050 37
2010-05-17 06:40:58 51°13.683 2°55.871 4.4 21 11.5 102050 40
2010-05-17 06:41:02 51°13.683 2°55.864 3.1 39 11.5 102050 40
2010-05-17 06:41:08 51°13.685 2°55.854 4.2 23 11.6 102050 37
2010-05-17 06:41:13 51°13.686 2°55.846 3.4 37 11.6 102050 37
2010-05-17 06:41:18 51°13.687 2°55.837 3.1 19 11.6 102050 37
2010-05-17 06:41:22 51°13.688 2°55.831 3.1 33 11.6 102050 37
2010-05-17 06:41:28 51°13.689 2°55.821 3.4 26 11.7 102050 39
2010-05-17 06:41:33 51°13.69 2°55.813 4.5 31 11.7 102050 39
2010-05-17 06:41:38 51°13.691 2°55.805 4.4 19 11.7 102050 37
2010-05-17 06:41:42 51°13.692 2°55.799 3.8 34 11.7 102050 37
2010-05-17 06:41:48 51°13.693 2°55.79 4.5 28 11.6 102050 36
2010-05-17 06:41:53 51°13.694 2°55.782 3.7 45 11.6 102050 36
2010-05-17 06:41:56 51°13.695 2°55.778 3.4 28 11.6 102050 40
2010-05-17 06:42:02 51°13.696 2°55.77 3.4 31 11.6 102050 40
2010-05-17 06:42:06 51°13.696 2°55.765 3.1 27 11.6 102050 38
2010-05-17 06:42:12 51°13.697 2°55.761 2 32 11.6 102050 38
2010-05-17 06:42:17 51°13.698 2°55.759 1.8 28 11.6 102050 36
2010-05-17 06:42:22 51°13.698 2°55.758 1.8 37 11.6 102050 36
2010-05-17 06:42:26 51°13.699 2°55.758 3 23 11.6 102040 38
2010-05-17 06:42:31 51°13.7 2°55.759 0.9 32 11.6 102040 38
2010-05-17 06:42:36 51°13.701 2°55.76 1.9 22 11.6 102050 36
2010-05-17 06:42:40 51°13.701 2°55.761 2.4 33 11.6 102050 36
2010-05-17 06:42:45 51°13.702 2°55.762 2.1 28 11.6 102050 40
2010-05-17 06:42:50 51°13.703 2°55.762 2.8 39 11.6 102050 40
2010-05-17 06:42:54 51°13.703 2°55.762 2.9 23 11.6 102050 36
2010-05-17 06:42:59 51°13.703 2°55.761 1.9 33 11.6 102050 36
2010-05-17 06:43:04 51°13.703 2°55.76 2.4 25 11.6 102050 37
2010-05-17 06:43:09 51°13.702 2°55.758 2.8 33 11.6 102050 37
2010-05-17 06:43:14 51°13.701 2°55.757 2.6 19 11.6 102050 37
2010-05-17 06:43:19 51°13.699 2°55.754 3.5 30 11.6 102050 37
2010-05-17 06:43:24 51°13.698 2°55.752 3.3 26 11.6 102050 37
2010-05-17 06:43:29 51°13.696 2°55.749 2.9 37 11.6 102050 37
2010-05-17 06:43:34 51°13.695 2°55.746 3 26 11.6 102050 37
2010-05-17 06:43:41 51°13.692 2°55.743 1.5 35 11.6 102050 37
2010-05-17 06:43:46 51°13.691 2°55.741 1.9 19 11.6 102050 37
2010-05-17 06:43:52 51°13.691 2°55.74 2 31 11.6 102050 37
2010-05-17 06:43:57 51°13.691 2°55.74 3.8 22 11.5 102050 40
2010-05-17 06:44:02 51°13.692 2°55.74 2.3 254 11.5 102050 40
2010-05-17 06:44:08 51°13.695 2°55.74 1.7 264 11.5 102050 40
2010-05-17 06:44:13 51°13.697 2°55.74 3.7 258 11.5 102050 40
2010-05-17 06:44:18 51°13.699 2°55.74 3.6 253 11.6 102050 39
2010-05-17 06:44:22 51°13.702 2°55.739 3.4 249 11.6 102050 39
2010-05-17 06:44:27 51°13.705 2°55.737 3.6 19 11.5 102050 37
2010-05-17 06:44:32 51°13.708 2°55.735 3.2 32 11.5 102050 37
2010-05-17 06:44:37 51°13.712 2°55.733 2.3 23 11.5 102060 40
2010-05-17 06:44:42 51°13.716 2°55.728 2.5 242 11.5 102060 40
2010-05-17 06:44:46 51°13.719 2°55.724 2.5 27 11.5 102050 38
2010-05-17 06:44:51 51°13.724 2°55.719 4.2 34 11.5 102050 38
2010-05-17 06:44:56 51°13.73 2°55.712 4.9 23 11.5 102050 37
2010-05-17 06:45:01 51°13.737 2°55.706 4.1 31 11.5 102050 37
2010-05-17 06:45:06 51°13.744 2°55.698 4.4 27 11.6 102050 40
2010-05-17 06:45:10 51°13.75 2°55.692 3.9 319 11.6 102050 40
2010-05-17 06:45:14 51°13.757 2°55.686 4.1 322 11.5 102050 37
2010-05-17 06:45:20 51°13.768 2°55.676 3.3 321 11.5 102050 37
2010-05-17 06:45:25 51°13.777 2°55.668 3.3 327 11.5 102050 39
2010-05-17 06:45:29 51°13.786 2°55.661 4.8 334 11.5 102050 39
2010-05-17 06:45:34 51°13.796 2°55.652 4.9 326 11.5 102050 37
2010-05-17 06:45:39 51°13.807 2°55.644 5.6 321 11.5 102050 37
2010-05-17 06:45:44 51°13.818 2°55.636 4.4 326 11.5 102050 37
2010-05-17 06:45:49 51°13.83 2°55.627 4.9 327 11.5 102050 37
2010-05-17 06:45:54 51°13.842 2°55.619 5.1 322 11.6 102050 37
2010-05-17 06:45:58 51°13.852 2°55.612 5.1 322 11.6 102050 37
2010-05-17 06:46:04 51°13.866 2°55.602 4.9 324 11.6 102050 39
2010-05-17 06:46:09 51°13.879 2°55.594 4.9 318 11.6 102050 39
2010-05-17 06:46:14 51°13.892 2°55.586 4.6 316 11.6 102050 40
2010-05-17 06:46:19 51°13.905 2°55.579 6.7 316 11.6 102050 40
2010-05-17 06:46:24 51°13.918 2°55.572 6 28 11.5 102050 39
2010-05-17 06:46:29 51°13.932 2°55.565 5 316 11.5 102050 39
2010-05-17 06:46:34 51°13.945 2°55.557 5.2 319 11.5 102050 37
2010-05-17 06:46:39 51°13.958 2°55.55 5.3 324 11.5 102050 37
2010-05-17 06:46:44 51°13.971 2°55.542 4.9 330 11.5 102040 38
2010-05-17 06:46:50 51°13.987 2°55.533 4 321 11.5 102040 38
2010-05-17 06:46:54 51°13.998 2°55.527 5 315 11.5 102040 39
2010-05-17 06:46:59 51°14.011 2°55.52 5.6 38 11.5 102040 39
2010-05-17 06:47:04 51°14.024 2°55.513 5.1 318 11.5 102050 38
2010-05-17 06:47:10 51°14.04 2°55.503 5.3 316 11.5 102050 38
2010-05-17 06:47:14 51°14.05 2°55.496 5.3 324 11.5 102050 37
2010-05-17 06:47:19 51°14.063 2°55.487 5.5 326 11.5 102050 37
2010-05-17 06:47:24 51°14.076 2°55.477 5.3 320 11.5 102050 40
2010-05-17 06:47:29 51°14.088 2°55.467 5.6 325 11.5 102050 40
2010-05-17 06:47:34 51°14.101 2°55.456 5.1 325 11.5 102050 38
2010-05-17 06:47:38 51°14.11 2°55.447 6 33 11.5 102050 38
2010-05-17 06:47:44 51°14.126 2°55.434 6.8 317 11.5 102050 37
2010-05-17 06:47:49 51°14.138 2°55.422 6.7 318 11.5 102050 37
2010-05-17 06:47:54 51°14.151 2°55.411 6.8 319 11.5 102050 38
2010-05-17 06:47:59 51°14.163 2°55.399 6.7 315 11.5 102050 38
2010-05-17 06:48:04 51°14.175 2°55.386 7.3 317 11.5 102050 39
2010-05-17 06:48:09 51°14.188 2°55.374 8.2 31 11.5 102050 39
2010-05-17 06:48:14 51°14.201 2°55.362 7.7 20 11.5 102040 37
2010-05-17 06:48:19 51°14.214 2°55.35 6.9 317 11.5 102040 37
2010-05-17 06:48:24 51°14.226 2°55.337 7.2 316 11.5 102050 37
2010-05-17 06:48:29 51°14.239 2°55.324 5.9 315 11.5 102050 37
2010-05-17 06:48:34 51°14.252 2°55.311 6.3 320 11.5 102040 38
2010-05-17 06:48:39 51°14.265 2°55.297 7 320 11.5 102040 38
2010-05-17 06:48:44 51°14.278 2°55.284 7.2 320 11.5 102040 39
2010-05-17 06:48:49 51°14.291 2°55.27 8.1 39 11.5 102040 39
2010-05-17 06:48:54 51°14.304 2°55.257 6.9 319 11.5 102050 38
2010-05-17 06:48:59 51°14.317 2°55.243 8.5 316 11.5 102050 38
2010-05-17 06:49:04 51°14.331 2°55.23 8.1 23 11.5 102050 38
2010-05-17 06:49:09 51°14.345 2°55.217 8 36 11.5 102050 38
2010-05-17 06:49:14 51°14.359 2°55.205 8 24 11.5 102040 37
2010-05-17 06:49:19 51°14.373 2°55.194 8.2 37 11.5 102040 37
2010-05-17 06:49:24 51°14.388 2°55.183 8.4 27 11.4 102040 38
2010-05-17 06:49:28 51°14.4 2°55.174 8.3 308 11.4 102040 38
2010-05-17 06:49:34 51°14.417 2°55.161 8.8 19 11.4 102040 38
2010-05-17 06:49:39 51°14.431 2°55.148 7.7 305 11.4 102040 38
2010-05-17 06:49:44 51°14.445 2°55.135 8.5 27 11.4 102040 37
2010-05-17 06:49:49 51°14.459 2°55.121 7.8 306 11.4 102040 37
2010-05-17 06:49:54 51°14.473 2°55.106 8.7 317 11.4 102030 37
2010-05-17 06:49:59 51°14.487 2°55.092 9.1 316 11.4 102030 37
2010-05-17 06:50:04 51°14.501 2°55.077 9.1 316 11.4 102040 37
2010-05-17 06:50:09 51°14.515 2°55.061 9.4 306 11.4 102040 37
2010-05-17 06:50:14 51°14.529 2°55.045 8.7 316 11.4 102040 39
2010-05-17 06:50:18 51°14.54 2°55.032 9.7 318 11.4 102040 39
2010-05-17 06:50:24 51°14.555 2°55.009 9.3 317 11.4 102030 39
2010-05-17 06:50:28 51°14.565 2°54.992 9.4 302 11.4 102030 39
2010-05-17 06:50:34 51°14.58 2°54.967 9.2 26 11.3 102030 37
2010-05-17 06:50:39 51°14.594 2°54.948 8.9 302 11.3 102030 37
2010-05-17 06:50:44 51°14.609 2°54.933 8.5 26 11.3 102040 37
2010-05-17 06:50:49 51°14.624 2°54.917 9.7 32 11.3 102040 37
2010-05-17 06:50:54 51°14.64 2°54.903 9.2 20 11.3 102030 39
2010-05-17 06:50:58 51°14.652 2°54.891 9.7 308 11.3 102030 39
2010-05-17 06:51:04 51°14.67 2°54.872 9.8 23 11.3 102030 37
2010-05-17 06:51:08 51°14.682 2°54.859 9.5 31 11.3 102030 37
2010-05-17 06:51:14 51°14.701 2°54.839 9.1 23 11.3 102030 38
2010-05-17 06:51:18 51°14.713 2°54.827 10 309 11.3 102030 38
2010-05-17 06:51:24 51°14.732 2°54.808 9.3 20 11.2 102030 38
2010-05-17 06:51:28 51°14.744 2°54.796 8.9 38 11.2 102030 38
2010-05-17 06:51:34 51°14.763 2°54.777 8.6 22 11.2 102030 38
2010-05-17 06:51:38 51°14.775 2°54.764 8.8 304 11.2 102030 38
2010-05-17 06:51:44 51°14.794 2°54.746 9 316 11.2 102030 39
2010-05-17 06:51:48 51°14.806 2°54.733 8.8 304 11.2 102030 39
2010-05-17 06:51:54 51°14.824 2°54.713 8.5 316 11.2 102040 38
2010-05-17 06:51:58 51°14.836 2°54.7 9.2 302 11.2 102040 38
2010-05-17 06:52:04 51°14.854 2°54.68 9.3 317 11.2 102040 38
2010-05-17 06:52:08 51°14.866 2°54.666 9.8 302 11.2 102040 38
2010-05-17 06:52:14 51°14.885 2°54.647 9 315 11.2 102030 39
2010-05-17 06:52:18 51°14.897 2°54.634 9.2 38 11.2 102030 39
2010-05-17 06:52:24 51°14.916 2°54.617 8.3 21 11.2 102040 37
2010-05-17 06:52:28 51°14.928 2°54.606 9.1 304 11.2 102040 37
2010-05-17 06:52:34 51°14.948 2°54.59 8.8 20 11.2 102030 39
2010-05-17 06:52:38 51°14.961 2°54.58 9.1 33 11.2 102030 39
2010-05-17 06:52:44 51°14.979 2°54.565 8.3 24 11.1 102030 37
2010-05-17 06:52:49 51°14.995 2°54.553 8.6 33 11.1 102030 37
2010-05-17 06:52:54 51°15.012 2°54.541 9.2 24 11.1 102040 39
2010-05-17 06:52:58 51°15.024 2°54.531 8.5 308 11.1 102040 39
2010-05-17 06:53:04 51°15.044 2°54.519 8.3 25 11.1 102040 39
2010-05-17 06:53:08 51°15.057 2°54.511 8.8 305 11.1 102040 39
2010-05-17 06:53:14 51°15.078 2°54.501 9.1 27 11.1 102040 37
2010-05-17 06:53:18 51°15.091 2°54.495 7.8 307 11.1 102040 37
2010-05-17 06:53:24 51°15.111 2°54.488 8.4 21 11.1 102040 37
2010-05-17 06:53:29 51°15.128 2°54.483 7.9 33 11.1 102040 37
2010-05-17 06:53:34 51°15.145 2°54.479 8.1 20 11.1 102030 38
2010-05-17 06:53:38 51°15.159 2°54.476 7 307 11.1 102030 38
2010-05-17 06:53:44 51°15.18 2°54.472 6.4 22 11.1 102050 37
2010-05-17 06:53:48 51°15.194 2°54.471 8 36 11.1 102050 37
2010-05-17 06:53:54 51°15.215 2°54.469 7 21 11.1 102040 37
2010-05-17 06:53:58 51°15.229 2°54.468 6.9 303 11.1 102040 37
2010-05-17 06:54:04 51°15.25 2°54.466 7 26 11.1 102050 37
2010-05-17 06:54:08 51°15.264 2°54.466 7.3 303 11.1 102050 37
2010-05-17 06:54:14 51°15.286 2°54.465 6.9 24 11.1 102050 37
2010-05-17 06:54:18 51°15.3 2°54.464 7.8 309 11.1 102050 37
2010-05-17 06:54:24 51°15.321 2°54.463 7.7 23 11 102040 39
2010-05-17 06:54:28 51°15.335 2°54.46 8.4 302 11 102040 39
2010-05-17 06:54:34 51°15.357 2°54.457 8.9 23 11 102050 39
2010-05-17 06:54:38 51°15.371 2°54.454 7.4 301 11 102050 39
2010-05-17 06:54:44 51°15.393 2°54.45 7.5 23 11 102050 38
2010-05-17 06:54:48 51°15.407 2°54.446 7.8 309 11 102050 38
2010-05-17 06:54:54 51°15.429 2°54.441 7.7 19 11 102050 39
2010-05-17 06:54:58 51°15.443 2°54.438 8.4 31 11 102050 39
2010-05-17 06:55:04 51°15.465 2°54.433 7.6 21 11 102050 37
2010-05-17 06:55:08 51°15.479 2°54.429 8.5 302 11 102050 37
2010-05-17 06:55:14 51°15.501 2°54.424 8.2 21 11 102050 37
2010-05-17 06:55:18 51°15.516 2°54.421 8.8 308 11 102050 37
2010-05-17 06:55:24 51°15.538 2°54.416 7.7 27 11 102040 37
2010-05-17 06:55:28 51°15.553 2°54.413 7.7 34 11 102040 37
2010-05-17 06:55:34 51°15.575 2°54.408 7.5 23 10.9 102050 37
2010-05-17 06:55:38 51°15.589 2°54.404 7.9 307 10.9 102050 37
2010-05-17 06:55:44 51°15.611 2°54.399 8.3 23 11 102050 38
2010-05-17 06:55:48 51°15.626 2°54.395 8.6 34 11 102050 38
2010-05-17 06:55:54 51°15.648 2°54.39 7.2 26 10.9 102050 37
2010-05-17 06:55:58 51°15.663 2°54.386 8.1 309 10.9 102050 37
2010-05-17 06:56:04 51°15.684 2°54.38 7.5 21 10.9 102050 37
2010-05-17 06:56:08 51°15.699 2°54.375 8 38 10.9 102050 37
2010-05-17 06:56:14 51°15.719 2°54.37 7.2 22 10.9 102040 38
2010-05-17 06:56:18 51°15.733 2°54.365 6.7 308 10.9 102040 38
2010-05-17 06:56:24 51°15.753 2°54.36 8.2 21 10.9 102050 37
2010-05-17 06:56:29 51°15.769 2°54.355 7.2 307 10.9 102050 37
2010-05-17 06:56:34 51°15.785 2°54.35 7.9 27 10.9 102040 38
2010-05-17 06:56:38 51°15.797 2°54.347 7.5 308 10.9 102040 38
2010-05-17 06:56:44 51°15.814 2°54.342 6.6 27 10.9 102050 38
2010-05-17 06:56:49 51°15.829 2°54.337 7 309 10.9 102050 38
2010-05-17 06:56:54 51°15.843 2°54.334 6.1 23 10.9 102050 39
2010-05-17 06:56:59 51°15.857 2°54.331 5.9 239 10.9 102050 39
2010-05-17 06:57:04 51°15.87 2°54.328 6.6 28 10.9 102050 38
2010-05-17 06:57:08 51°15.881 2°54.326 6.1 301 10.9 102050 38
2010-05-17 06:57:14 51°15.897 2°54.324 6.6 19 10.9 102050 37
2010-05-17 06:57:18 51°15.908 2°54.322 6.7 308 10.9 102050 37
2010-05-17 06:57:24 51°15.923 2°54.32 6.5 28 10.9 102050 38
2010-05-17 06:57:29 51°15.935 2°54.318 6.1 241 10.9 102050 38
2010-05-17 06:57:34 51°15.947 2°54.317 6.6 20 10.9 102060 37
2010-05-17 06:57:38 51°15.956 2°54.315 5.3 308 10.9 102060 37
2010-05-17 06:57:44 51°15.969 2°54.313 5.9 26 10.9 102050 37
2010-05-17 06:57:48 51°15.978 2°54.311 5.5 302 10.9 102050 37
2010-05-17 06:57:54 51°15.991 2°54.309 6.5 23 10.9 102050 37
2010-05-17 06:57:58 51°15.999 2°54.307 5.6 308 10.9 102050 37
2010-05-17 06:58:04 51°16.011 2°54.305 6.3 23 10.9 102050 39
2010-05-17 06:58:08 51°16.019 2°54.303 5.8 238 10.9 102050 39
2010-05-17 06:58:14 51°16.031 2°54.3 5 21 10.9 102060 37
2010-05-17 06:58:18 51°16.039 2°54.299 5.6 308 10.9 102060 37
2010-05-17 06:58:24 51°16.05 2°54.297 5.9 20 10.9 102060 38
2010-05-17 06:58:28 51°16.058 2°54.295 6.2 301 10.9 102060 38
2010-05-17 06:58:34 51°16.069 2°54.293 5.9 23 10.9 102060 39
2010-05-17 06:58:38 51°16.077 2°54.291 5.1 302 10.9 102060 39
2010-05-17 06:58:44 51°16.088 2°54.289 5 23 10.9 102060 39
2010-05-17 06:58:48 51°16.095 2°54.288 4.8 301 10.9 102060 39
2010-05-17 06:58:54 51°16.106 2°54.285 5 25 10.9 102060 39
2010-05-17 06:58:58 51°16.113 2°54.284 4.9 304 10.9 102060 39
2010-05-17 06:59:04 51°16.124 2°54.282 4.6 21 10.9 102060 39
2010-05-17 06:59:08 51°16.131 2°54.28 5.9 307 10.9 102060 39
2010-05-17 06:59:14 51°16.141 2°54.278 5.9 21 10.9 102060 40
2010-05-17 06:59:18 51°16.148 2°54.277 5.2 302 10.9 102060 40
2010-05-17 06:59:24 51°16.159 2°54.274 5 19 10.9 102060 39
2010-05-17 06:59:28 51°16.166 2°54.273 4.4 244 10.9 102060 39
2010-05-17 06:59:33 51°16.174 2°54.271 4.5 27 10.9 102060 37
2010-05-17 06:59:38 51°16.183 2°54.269 4.7 308 10.9 102060 37
2010-05-17 06:59:43 51°16.191 2°54.268 5.4 244 10.9 102060 39
2010-05-17 06:59:48 51°16.199 2°54.266 5.2 307 10.9 102060 39
2010-05-17 06:59:54 51°16.208 2°54.264 5.1 23 10.9 102060 37
2010-05-17 06:59:58 51°16.214 2°54.262 5.3 307 10.9 102060 37
2010-05-17 07:00:03 51°16.221 2°54.26 5.2 245 11 102060 39
2010-05-17 07:00:08 51°16.228 2°54.258 5.2 244 11 102060 39
2010-05-17 07:00:13 51°16.235 2°54.256 5.6 20 11 102060 38
2010-05-17 07:00:18 51°16.24 2°54.254 5.2 301 11 102060 38
2010-05-17 07:00:24 51°16.247 2°54.251 5.2 246 11 102060 38
2010-05-17 07:00:28 51°16.251 2°54.248 4.9 246 11 102060 38
2010-05-17 07:00:33 51°16.256 2°54.245 4.9 23 11 102060 39
2010-05-17 07:00:38 51°16.26 2°54.242 4.9 308 11 102060 39
2010-05-17 07:00:44 51°16.264 2°54.237 4.5 19 11 102060 38
2010-05-17 07:00:48 51°16.266 2°54.235 3.8 303 11 102060 38
2010-05-17 07:00:54 51°16.269 2°54.231 4.4 22 11 102060 40
2010-05-17 07:00:58 51°16.271 2°54.228 4.6 308 11 102060 40
2010-05-17 07:01:03 51°16.273 2°54.225 4.8 21 11 102060 37
2010-05-17 07:01:09 51°16.275 2°54.222 4.5 307 11 102060 37
2010-05-17 07:01:14 51°16.277 2°54.22 4.5 252 11 102070 37
2010-05-17 07:01:18 51°16.278 2°54.219 5.4 304 11 102070 37
2010-05-17 07:01:24 51°16.279 2°54.216 4.7 252 11.1 102070 37
2010-05-17 07:01:28 51°16.28 2°54.215 5 308 11.1 102070 37
2010-05-17 07:01:34 51°16.282 2°54.212 5.1 255 11.1 102070 40
2010-05-17 07:01:38 51°16.282 2°54.211 5.5 258 11.1 102070 40
2010-05-17 07:01:44 51°16.284 2°54.209 5.1 257 11.1 102070 37
2010-05-17 07:01:48 51°16.284 2°54.208 4.8 307 11.1 102070 37
2010-05-17 07:01:54 51°16.286 2°54.206 4.6 260 11.1 102070 37
2010-05-17 07:01:58 51°16.286 2°54.205 5 308 11.1 102070 37
2010-05-17 07:02:04 51°16.287 2°54.203 5.2 259 11.1 102070 40
2010-05-17 07:02:08 51°16.288 2°54.202 4.6 260 11.1 102070 40
2010-05-17 07:02:14 51°16.289 2°54.201 4.2 262 11.1 102070 37
2010-05-17 07:02:18 51°16.29 2°54.2 3.6 308 11.1 102070 37
2010-05-17 07:02:24 51°16.291 2°54.198 4.4 260 11.1 102070 37
2010-05-17 07:02:28 51°16.292 2°54.197 4.4 259 11.1 102070 37
2010-05-17 07:02:34 51°16.293 2°54.196 4.5 260 11.1 102080 37
2010-05-17 07:02:38 51°16.293 2°54.195 4.4 308 11.1 102080 37
2010-05-17 07:02:44 51°16.294 2°54.194 4.7 260 11.1 102080 38
2010-05-17 07:02:48 51°16.295 2°54.193 4.9 260 11.1 102080 38
2010-05-17 07:02:54 51°16.296 2°54.191 4 261 11.1 102070 37
2010-05-17 07:02:58 51°16.296 2°54.19 4.4 304 11.1 102070 37
2010-05-17 07:03:04 51°16.297 2°54.189 5.1 259 11.1 102080 36
2010-05-17 07:03:08 51°16.298 2°54.188 4.7 304 11.1 102080 36
2010-05-17 07:03:14 51°16.299 2°54.187 4.5 260 11.1 102080 40
2010-05-17 07:03:18 51°16.299 2°54.186 4 309 11.1 102080 40
2010-05-17 07:03:24 51°16.3 2°54.184 4.5 260 11.1 102070 37
2010-05-17 07:03:28 51°16.3 2°54.183 4.4 302 11.1 102070 37
2010-05-17 07:03:34 51°16.301 2°54.182 4.5 259 11.1 102080 37
2010-05-17 07:03:38 51°16.302 2°54.181 4.6 257 11.1 102080 37
2010-05-17 07:03:44 51°16.302 2°54.18 4.8 256 11.1 102080 39
2010-05-17 07:03:48 51°16.302 2°54.179 5.1 305 11.1 102080 39
2010-05-17 07:03:54 51°16.303 2°54.177 5.4 259 11.1 102070 37
2010-05-17 07:03:58 51°16.304 2°54.176 6 302 11.1 102070 37
2010-05-17 07:04:04 51°16.304 2°54.174 5.9 257 11.1 102080 39
2010-05-17 07:04:08 51°16.304 2°54.173 4.5 260 11.1 102080 39
2010-05-17 07:04:14 51°16.305 2°54.172 4.8 260 11.1 102080 37
2010-05-17 07:04:18 51°16.305 2°54.171 4.9 308 11.1 102080 37
2010-05-17 07:04:24 51°16.306 2°54.17 4.7 259 11.1 102080 39
2010-05-17 07:04:28 51°16.306 2°54.168 4.2 305 11.1 102080 39
2010-05-17 07:04:34 51°16.306 2°54.167 5.2 259 11.1 102080 37
2010-05-17 07:04:38 51°16.307 2°54.166 5.3 309 11.1 102080 37
2010-05-17 07:04:44 51°16.307 2°54.164 5.3 261 11.1 102080 39
2010-05-17 07:04:48 51°16.307 2°54.164 4.9 259 11.1 102080 39
2010-05-17 07:04:54 51°16.308 2°54.162 4.9 259 11.1 102080 37
2010-05-17 07:04:58 51°16.308 2°54.161 5.2 304 11.1 102080 37
2010-05-17 07:05:04 51°16.308 2°54.159 5.1 261 11.1 102080 38
2010-05-17 07:05:08 51°16.309 2°54.158 4.7 308 11.1 102080 38
2010-05-17 07:05:14 51°16.309 2°54.157 5.3 260 11.1 102080 39
2010-05-17 07:05:19 51°16.309 2°54.155 4.9 308 11.1 102080 39
2010-05-17 07:05:24 51°16.309 2°54.154 5.1 256 11.1 102080 40
2010-05-17 07:05:28 51°16.309 2°54.153 5.3 306 11.1 102080 40
2010-05-17 07:05:34 51°16.31 2°54.151 5.9 258 11.1 102080 40
2010-05-17 07:05:38 51°16.31 2°54.15 5.5 309 11.1 102080 40
2010-05-17 07:05:44 51°16.31 2°54.149 5.7 260 11.1 102080 35
2010-05-17 07:05:48 51°16.31 2°54.147 5.2 308 11.1 102080 35
2010-05-17 07:05:54 51°16.31 2°54.146 5.1 258 11.1 102080 39
2010-05-17 07:05:58 51°16.31 2°54.145 5.2 256 11.1 102080 39
2010-05-17 07:06:04 51°16.31 2°54.143 5.3 257 11.1 102080 39
2010-05-17 07:06:08 51°16.311 2°54.142 5.6 257 11.1 102080 39
2010-05-17 07:06:14 51°16.311 2°54.14 5.4 258 11.1 102080 39
2010-05-17 07:06:18 51°16.311 2°54.139 4.8 306 11.1 102080 39
2010-05-17 07:06:24 51°16.311 2°54.137 5 259 11.1 102080 40
2010-05-17 07:06:28 51°16.311 2°54.136 5 303 11.1 102080 40
2010-05-17 07:06:34 51°16.311 2°54.135 4.6 256 11.1 102080 38
2010-05-17 07:06:38 51°16.311 2°54.133 4.9 307 11.1 102080 38
2010-05-17 07:06:44 51°16.311 2°54.131 5.2 256 11.1 102080 38
2010-05-17 07:06:48 51°16.311 2°54.13 5.1 258 11.1 102080 38
2010-05-17 07:06:54 51°16.311 2°54.129 4.8 257 11.1 102080 38
2010-05-17 07:06:58 51°16.311 2°54.128 5.1 308 11.1 102080 38
2010-05-17 07:07:04 51°16.311 2°54.126 5.5 256 11.1 102080 38
2010-05-17 07:07:08 51°16.311 2°54.125 5.1 255 11.1 102080 38
2010-05-17 07:07:14 51°16.31 2°54.123 5.4 257 11.1 102080 39
2010-05-17 07:07:18 51°16.31 2°54.122 5.3 307 11.1 102080 39
2010-05-17 07:07:24 51°16.31 2°54.12 5 254 11.1 102080 37
2010-05-17 07:07:28 51°16.31 2°54.119 4.9 303 11.1 102080 37
2010-05-17 07:07:34 51°16.31 2°54.117 4.4 257 11.1 102080 38
2010-05-17 07:07:38 51°16.31 2°54.116 4.4 257 11.1 102080 38
2010-05-17 07:07:44 51°16.31 2°54.114 5.1 258 11.1 102080 39
2010-05-17 07:07:48 51°16.31 2°54.113 4.8 302 11.1 102080 39
2010-05-17 07:07:54 51°16.31 2°54.112 4.4 255 11.1 102080 40
2010-05-17 07:07:58 51°16.31 2°54.111 3.4 307 11.1 102080 40
2010-05-17 07:08:04 51°16.309 2°54.109 4.8 257 11.1 102080 37
2010-05-17 07:08:08 51°16.309 2°54.108 5.6 309 11.1 102080 37
2010-05-17 07:08:14 51°16.309 2°54.106 5.2 255 11.1 102080 38
2010-05-17 07:08:18 51°16.309 2°54.105 5.4 260 11.1 102080 38
2010-05-17 07:08:24 51°16.309 2°54.104 5.8 257 11.1 102080 38
2010-05-17 07:08:28 51°16.309 2°54.102 5.4 256 11.1 102080 38
2010-05-17 07:08:34 51°16.308 2°54.101 4.8 258 11.1 102080 40
2010-05-17 07:08:38 51°16.308 2°54.1 5.1 307 11.1 102080 40
2010-05-17 07:08:44 51°16.308 2°54.098 5 256 11.2 102080 39
2010-05-17 07:08:48 51°16.308 2°54.097 4.8 252 11.2 102080 39
2010-05-17 07:08:54 51°16.308 2°54.096 5.6 256 11.2 102080 40
2010-05-17 07:08:58 51°16.308 2°54.095 5.2 301 11.2 102080 40
2010-05-17 07:09:04 51°16.307 2°54.093 5.8 256 11.1 102080 37
2010-05-17 07:09:08 51°16.307 2°54.092 5.6 305 11.1 102080 37
2010-05-17 07:09:14 51°16.307 2°54.09 5.5 254 11.1 102080 38
2010-05-17 07:09:18 51°16.307 2°54.089 4.9 303 11.1 102080 38
2010-05-17 07:09:24 51°16.306 2°54.088 4.9 254 11.1 102080 38
2010-05-17 07:09:28 51°16.306 2°54.087 5.7 254 11.1 102080 38
2010-05-17 07:09:34 51°16.306 2°54.085 4.9 253 11.2 102080 37
2010-05-17 07:09:38 51°16.306 2°54.084 5.3 303 11.2 102080 37
2010-05-17 07:09:44 51°16.306 2°54.083 5.3 252 11.2 102080 38
2010-05-17 07:09:48 51°16.305 2°54.082 5 304 11.2 102080 38
2010-05-17 07:09:54 51°16.305 2°54.08 5.5 253 11.1 102080 39
2010-05-17 07:09:58 51°16.305 2°54.079 4.9 254 11.1 102080 39
2010-05-17 07:10:04 51°16.305 2°54.078 4.9 254 11.2 102080 40
2010-05-17 07:10:08 51°16.304 2°54.077 4.6 310 11.2 102080 40
2010-05-17 07:10:14 51°16.304 2°54.075 5.1 254 11.2 102080 38
2010-05-17 07:10:18 51°16.304 2°54.074 4.6 303 11.2 102080 38
2010-05-17 07:10:24 51°16.304 2°54.073 4.9 253 11.2 102080 37
2010-05-17 07:10:28 51°16.303 2°54.072 4.8 308 11.2 102080 37
2010-05-17 07:10:34 51°16.303 2°54.071 5.4 252 11.2 102080 40
2010-05-17 07:10:38 51°16.303 2°54.07 5.3 252 11.2 102080 40
2010-05-17 07:10:44 51°16.302 2°54.068 4.9 252 11.2 102080 37
2010-05-17 07:10:48 51°16.302 2°54.067 4.8 303 11.2 102080 37
2010-05-17 07:10:54 51°16.302 2°54.066 4.9 253 11.1 102080 38
2010-05-17 07:10:58 51°16.301 2°54.065 4.6 307 11.1 102080 38
2010-05-17 07:11:04 51°16.301 2°54.064 5.3 260 11.1 102080 35
2010-05-17 07:11:09 51°16.3 2°54.063 4.5 254 11.1 102080 35
2010-05-17 07:11:14 51°16.3 2°54.062 4.5 253 11.2 102080 40
2010-05-17 07:11:18 51°16.3 2°54.061 4.5 305 11.2 102080 40
2010-05-17 07:11:24 51°16.3 2°54.06 4.9 254 11.2 102080 40
2010-05-17 07:11:29 51°16.299 2°54.059 5.4 301 11.2 102080 40
2010-05-17 07:11:33 51°16.299 2°54.058 5.3 254 11.2 102080 37
2010-05-17 07:11:38 51°16.299 2°54.057 5.4 308 11.2 102080 37
2010-05-17 07:11:43 51°16.298 2°54.056 5.2 255 11.2 102080 37
2010-05-17 07:11:48 51°16.298 2°54.055 5.5 303 11.2 102080 37
2010-05-17 07:11:54 51°16.297 2°54.054 4.8 255 11.2 102090 37
2010-05-17 07:11:58 51°16.297 2°54.053 5.5 307 11.2 102090 37
2010-05-17 07:12:03 51°16.296 2°54.052 5.1 256 11.2 102080 37
2010-05-17 07:12:08 51°16.296 2°54.051 4.8 304 11.2 102080 37
2010-05-17 07:12:13 51°16.296 2°54.05 5.3 255 11.2 102080 39
2010-05-17 07:12:18 51°16.295 2°54.049 5 302 11.2 102080 39
2010-05-17 07:12:23 51°16.295 2°54.048 5.1 255 11.2 102090 37
2010-05-17 07:12:28 51°16.295 2°54.047 4.9 302 11.2 102090 37
2010-05-17 07:12:33 51°16.295 2°54.045 5.4 253 11.2 102080 37
2010-05-17 07:12:38 51°16.296 2°54.044 5 251 11.2 102080 37
2010-05-17 07:12:43 51°16.298 2°54.042 4.8 250 11.2 102090 39
2010-05-17 07:12:48 51°16.3 2°54.041 5.3 308 11.2 102090 39
2010-05-17 07:12:53 51°16.302 2°54.039 4.9 21 11.2 102080 40
2010-05-17 07:12:58 51°16.305 2°54.036 5.7 279 11.2 102080 40
2010-05-17 07:13:04 51°16.31 2°54.032 5.4 24 11.2 102080 40
2010-05-17 07:13:19 51°16.325 2°54.021 5.7 239 11.2 102080 38
2010-05-17 07:13:24 51°16.331 2°54.016 6 279 11.2 102080 37
2010-05-17 07:13:29 51°16.338 2°54.01 6.5 237 11.2 102080 37
2010-05-17 07:13:35 51°16.347 2°54.003 5.9 278 11.2 102070 39
2010-05-17 07:13:39 51°16.354 2°53.997 6.3 34 11.2 102070 39
2010-05-17 07:13:44 51°16.363 2°53.99 6.2 28 11.2 102080 38
2010-05-17 07:13:44 51°16.363 2°53.99 6.2 28 11.2 102080 38
2010-05-17 07:13:59 51°16.393 2°53.964 6.8 39 11.2 102070 39
2010-05-17 07:14:04 51°16.404 2°53.954 7.8 284 11.1 102070 39
2010-05-17 07:14:09 51°16.416 2°53.944 8 35 11.1 102070 39
2010-05-17 07:14:13 51°16.425 2°53.935 7.1 278 11.1 102070 37
2010-05-17 07:14:19 51°16.44 2°53.923 7.7 34 11.1 102070 37
2010-05-17 07:14:24 51°16.452 2°53.911 8 21 11.1 102070 38
2010-05-17 07:14:29 51°16.465 2°53.9 7.6 37 11.1 102070 38
2010-05-17 07:14:34 51°16.478 2°53.889 7.6 286 11.1 102070 39
2010-05-17 07:14:39 51°16.49 2°53.875 7.4 37 11.1 102070 39
2010-05-17 07:14:44 51°16.503 2°53.862 7.4 21 11.1 102060 39
2010-05-17 07:14:49 51°16.515 2°53.848 8.4 316 11.1 102060 39
2010-05-17 07:14:54 51°16.528 2°53.833 8.8 316 11.1 102060 38
2010-05-17 07:14:59 51°16.541 2°53.818 8.6 316 11.1 102060 38
2010-05-17 07:15:04 51°16.554 2°53.803 8.7 284 11.1 102060 37
2010-05-17 07:15:09 51°16.568 2°53.787 8.7 318 11.1 102060 37
2010-05-17 07:15:14 51°16.581 2°53.77 8.8 278 11.1 102060 37
2010-05-17 07:15:19 51°16.595 2°53.754 8.7 318 11.1 102060 37
2010-05-17 07:15:24 51°16.608 2°53.737 8.7 317 11.1 102060 38
2010-05-17 07:15:29 51°16.622 2°53.72 8.3 319 11.1 102060 38
2010-05-17 07:15:34 51°16.636 2°53.703 8.2 317 11.1 102060 37
2010-05-17 07:15:40 51°16.652 2°53.68 8.7 319 11.1 102060 37
2010-05-17 07:15:44 51°16.663 2°53.665 8.7 279 11 102060 39
2010-05-17 07:15:49 51°16.677 2°53.646 8.6 319 11 102060 39
2010-05-17 07:15:54 51°16.69 2°53.626 9.4 318 11 102060 39
2010-05-17 07:16:00 51°16.707 2°53.602 9.6 319 11 102060 39
2010-05-17 07:16:04 51°16.718 2°53.586 9.7 279 11 102060 37
2010-05-17 07:16:09 51°16.731 2°53.567 9.5 318 11 102060 37
2010-05-17 07:16:14 51°16.745 2°53.546 9 283 11 102060 38
2010-05-17 07:16:19 51°16.758 2°53.526 9.8 319 11 102060 38
2010-05-17 07:16:24 51°16.772 2°53.505 10.1 319 11 102050 36
2010-05-17 07:16:29 51°16.786 2°53.486 9.7 319 11 102050 36
2010-05-17 07:16:33 51°16.797 2°53.469 8.9 282 11 102050 39
2010-05-17 07:16:39 51°16.814 2°53.445 9.5 320 11 102050 39
2010-05-17 07:16:44 51°16.828 2°53.425 9.6 320 11 102060 39
2010-05-17 07:16:49 51°16.841 2°53.404 9.8 319 11 102060 39
2010-05-17 07:16:54 51°16.855 2°53.384 11 319 11 102050 37
2010-05-17 07:17:00 51°16.871 2°53.358 9 321 11 102050 37
2010-05-17 07:17:04 51°16.882 2°53.341 8.6 323 11 102060 38
2010-05-17 07:17:09 51°16.894 2°53.32 9.7 321 11 102060 38
2010-05-17 07:17:14 51°16.907 2°53.299 8.9 283 11 102050 38
2010-05-17 07:17:20 51°16.922 2°53.274 9.3 322 11 102050 38
2010-05-17 07:17:24 51°16.932 2°53.258 9.4 320 11 102050 37
2010-05-17 07:17:30 51°16.946 2°53.233 8.7 321 11 102050 37
2010-05-17 07:17:34 51°16.956 2°53.217 9.2 320 11 102060 38
2010-05-17 07:17:40 51°16.971 2°53.192 8.6 322 11 102060 38
2010-05-17 07:17:44 51°16.98 2°53.175 9.7 279 11 102050 39
2010-05-17 07:17:49 51°16.992 2°53.154 8.7 321 11 102050 39
2010-05-17 07:17:54 51°17.003 2°53.132 10 321 10.9 102060 37
2010-05-17 07:17:59 51°17.015 2°53.11 9.6 322 10.9 102060 37
2010-05-17 07:18:04 51°17.026 2°53.087 9 284 10.9 102060 38
2010-05-17 07:18:09 51°17.037 2°53.064 8.6 323 10.9 102060 38
2010-05-17 07:18:14 51°17.048 2°53.041 9.7 324 11 102060 37
2010-05-17 07:18:19 51°17.059 2°53.018 10 322 11 102060 37
2010-05-17 07:18:24 51°17.071 2°52.994 9.5 284 11 102060 38
2010-05-17 07:18:29 51°17.082 2°52.971 9.1 322 11 102060 38
2010-05-17 07:18:34 51°17.094 2°52.948 9.5 322 11 102070 37
2010-05-17 07:18:39 51°17.106 2°52.925 10.5 322 11 102070 37
2010-05-17 07:18:44 51°17.118 2°52.902 9.4 321 11 102070 37
2010-05-17 07:18:49 51°17.131 2°52.879 9.5 322 11 102070 37
2010-05-17 07:18:54 51°17.143 2°52.856 8.5 322 11 102060 37
2010-05-17 07:19:00 51°17.159 2°52.829 9.1 322 11 102060 37
2010-05-17 07:19:04 51°17.169 2°52.811 10 323 11 102060 37
2010-05-17 07:19:09 51°17.182 2°52.788 10 322 11 102060 37
2010-05-17 07:19:14 51°17.194 2°52.765 9.9 281 10.9 102060 39
2010-05-17 07:19:19 51°17.206 2°52.742 10.4 321 10.9 102060 39
2010-05-17 07:19:24 51°17.219 2°52.719 9.9 321 11 102060 38
2010-05-17 07:19:30 51°17.234 2°52.691 9.5 322 11 102060 38
2010-05-17 07:19:34 51°17.244 2°52.673 9.6 279 11 102060 38
2010-05-17 07:19:39 51°17.256 2°52.65 9.5 322 11 102060 38
2010-05-17 07:19:45 51°17.271 2°52.623 9.5 285 10.9 102060 38
2010-05-17 07:19:49 51°17.281 2°52.605 8.7 322 10.9 102060 38
2010-05-17 07:19:54 51°17.293 2°52.582 8.8 321 11 102060 39
2010-05-17 07:20:00 51°17.308 2°52.555 9.5 322 11 102060 39
2010-05-17 07:20:04 51°17.318 2°52.536 8.8 279 10.9 102060 39
2010-05-17 07:20:10 51°17.333 2°52.509 9.5 322 10.9 102060 39
2010-05-17 07:20:14 51°17.343 2°52.49 8.8 323 10.9 102060 39
2010-05-17 07:20:20 51°17.357 2°52.463 9.2 322 10.9 102060 39
2010-05-17 07:20:24 51°17.367 2°52.444 9.1 322 11 102070 38
2010-05-17 07:20:30 51°17.382 2°52.416 8.8 322 11 102070 38
2010-05-17 07:20:34 51°17.392 2°52.397 9.7 281 11 102070 38
2010-05-17 07:20:40 51°17.406 2°52.37 10.3 322 11 102070 38
2010-05-17 07:20:44 51°17.417 2°52.351 9.7 280 11 102060 38
2010-05-17 07:20:49 51°17.429 2°52.329 9.3 323 11 102060 38
2010-05-17 07:20:54 51°17.442 2°52.306 9 323 11 102060 39
2010-05-17 07:21:00 51°17.457 2°52.278 9.1 324 11 102060 39
2010-05-17 07:21:04 51°17.466 2°52.26 9.9 323 11 102060 37
2010-05-17 07:21:10 51°17.482 2°52.233 9.7 322 11 102060 37
2010-05-17 07:21:14 51°17.493 2°52.216 10.3 322 11 102060 38
2010-05-17 07:21:19 51°17.507 2°52.194 9 322 11 102060 38
2010-05-17 07:21:24 51°17.52 2°52.173 10.7 322 11 102070 37
2010-05-17 07:21:30 51°17.537 2°52.148 10.6 321 11 102070 37
2010-05-17 07:21:34 51°17.548 2°52.131 9.4 285 11 102060 37
2010-05-17 07:21:40 51°17.565 2°52.107 9.8 322 11 102060 37
2010-05-17 07:21:44 51°17.575 2°52.09 10.3 321 10.9 102060 36
2010-05-17 07:21:50 51°17.592 2°52.065 10.2 323 10.9 102060 36
2010-05-17 07:21:53 51°17.6 2°52.052 10.1 322 10.9 102060 37
2010-05-17 07:22:00 51°17.619 2°52.023 10 324 10.9 102060 37
2010-05-17 07:22:04 51°17.63 2°52.006 9.2 324 10.9 102060 37
2010-05-17 07:22:09 51°17.643 2°51.985 9.5 323 10.9 102060 37
2010-05-17 07:22:14 51°17.657 2°51.964 9.5 323 11 102060 38
2010-05-17 07:22:19 51°17.67 2°51.943 9.7 323 11 102060 38
2010-05-17 07:22:24 51°17.683 2°51.923 9.2 282 10.9 102070 38
2010-05-17 07:22:30 51°17.7 2°51.898 9.9 322 10.9 102070 38
2010-05-17 07:22:34 51°17.711 2°51.882 9 321 10.9 102070 37
2010-05-17 07:22:39 51°17.724 2°51.861 9.3 322 10.9 102070 37
2010-05-17 07:22:44 51°17.738 2°51.841 9.3 322 10.9 102060 37
2010-05-17 07:22:50 51°17.754 2°51.816 9.2 324 10.9 102060 37
2010-05-17 07:22:54 51°17.765 2°51.799 9.1 323 10.9 102060 38
2010-05-17 07:23:00 51°17.781 2°51.774 9.6 322 10.9 102060 38
2010-05-17 07:23:04 51°17.792 2°51.758 9.5 285 10.9 102060 37
2010-05-17 07:23:09 51°17.806 2°51.738 9.7 322 10.9 102060 37
2010-05-17 07:23:14 51°17.821 2°51.72 8.8 322 10.9 102060 37
2010-05-17 07:23:20 51°17.838 2°51.697 9.6 322 10.9 102060 37
2010-05-17 07:23:24 51°17.85 2°51.683 9.8 321 10.9 102060 39
2010-05-17 07:23:30 51°17.868 2°51.662 9 320 10.9 102060 39
2010-05-17 07:23:34 51°17.881 2°51.648 9.6 281 10.9 102060 38
2010-05-17 07:23:40 51°17.899 2°51.628 9.2 320 10.9 102060 38
2010-05-17 07:23:44 51°17.911 2°51.614 9.2 321 10.9 102060 38
2010-05-17 07:23:49 51°17.927 2°51.598 8.8 322 10.9 102060 38
2010-05-17 07:23:54 51°17.943 2°51.581 10.5 322 10.9 102060 37
2010-05-17 07:24:00 51°17.962 2°51.561 9 322 10.9 102060 37
2010-05-17 07:24:04 51°17.974 2°51.548 9.7 320 10.9 102060 37
2010-05-17 07:24:10 51°17.993 2°51.528 8.8 322 10.9 102060 37
2010-05-17 07:24:14 51°18.006 2°51.515 9.5 322 10.8 102060 37
2010-05-17 07:24:20 51°18.025 2°51.495 9.7 320 10.8 102060 37
2010-05-17 07:24:24 51°18.038 2°51.482 9.4 282 10.8 102060 36
2010-05-17 07:24:30 51°18.057 2°51.462 9.5 321 10.8 102060 36
2010-05-17 07:24:34 51°18.069 2°51.449 9.7 324 10.8 102060 37
2010-05-17 07:24:40 51°18.088 2°51.429 10 322 10.8 102060 37
2010-05-17 07:24:44 51°18.1 2°51.415 9.3 282 10.8 102060 38
2010-05-17 07:24:50 51°18.118 2°51.396 9.4 324 10.8 102060 38
2010-05-17 07:24:54 51°18.13 2°51.383 10.8 324 10.8 102060 38
2010-05-17 07:25:00 51°18.148 2°51.363 9.6 323 10.8 102060 38
2010-05-17 07:25:04 51°18.16 2°51.35 9.5 283 10.8 102060 39
2010-05-17 07:25:10 51°18.176 2°51.332 9.3 322 10.8 102060 39
2010-05-17 07:25:14 51°18.187 2°51.32 8.7 283 10.7 102060 37
2010-05-17 07:25:20 51°18.202 2°51.304 7.9 323 10.7 102060 37
2010-05-17 07:25:24 51°18.211 2°51.293 8.1 282 10.7 102060 37
2010-05-17 07:25:30 51°18.224 2°51.278 7.7 321 10.7 102060 37
2010-05-17 07:25:34 51°18.232 2°51.269 8.2 285 10.7 102060 37
2010-05-17 07:25:40 51°18.244 2°51.255 7.5 319 10.7 102060 37
2010-05-17 07:25:44 51°18.252 2°51.246 7.9 320 10.7 102070 38
2010-05-17 07:25:50 51°18.263 2°51.234 7.6 321 10.7 102070 38
2010-05-17 07:25:54 51°18.269 2°51.225 6.5 321 10.7 102060 37
2010-05-17 07:26:00 51°18.279 2°51.214 7.3 320 10.7 102060 37
2010-05-17 07:26:04 51°18.285 2°51.206 6.9 320 10.7 102060 39
2010-05-17 07:26:10 51°18.294 2°51.195 6.3 322 10.7 102060 39
2010-05-17 07:26:14 51°18.299 2°51.189 6.1 283 10.7 102070 37
2010-05-17 07:26:20 51°18.307 2°51.179 6 317 10.7 102070 37
2010-05-17 07:26:24 51°18.312 2°51.174 6.8 284 10.7 102070 36
2010-05-17 07:26:29 51°18.318 2°51.167 6.5 32 10.7 102070 36
2010-05-17 07:26:34 51°18.325 2°51.162 6.4 279 10.7 102070 38
2010-05-17 07:26:40 51°18.332 2°51.156 6.9 37 10.7 102070 38
2010-05-17 07:26:44 51°18.337 2°51.153 6 27 10.7 102070 38
2010-05-17 07:26:50 51°18.344 2°51.148 6.3 38 10.7 102070 38
2010-05-17 07:26:54 51°18.349 2°51.144 6.6 20 10.7 102070 37
2010-05-17 07:27:00 51°18.356 2°51.14 6.1 33 10.7 102070 37
2010-05-17 07:27:04 51°18.36 2°51.137 6 285 10.7 102070 35
2010-05-17 07:27:10 51°18.367 2°51.133 5.7 32 10.7 102070 35
2010-05-17 07:27:14 51°18.371 2°51.13 6 23 10.6 102070 36
2010-05-17 07:27:20 51°18.377 2°51.125 5.3 35 10.6 102070 36
2010-05-17 07:27:24 51°18.381 2°51.122 5.8 282 10.6 102070 38
2010-05-17 07:27:30 51°18.387 2°51.117 6 32 10.6 102070 38
2010-05-17 07:27:34 51°18.391 2°51.113 6 277 10.6 102070 37
2010-05-17 07:27:40 51°18.397 2°51.108 5.9 37 10.6 102070 37
2010-05-17 07:27:44 51°18.4 2°51.104 5.3 316 10.6 102070 37
2010-05-17 07:27:49 51°18.405 2°51.099 5.4 37 10.6 102070 37
2010-05-17 07:27:54 51°18.409 2°51.094 5.7 315 10.6 102070 38
2010-05-17 07:28:00 51°18.414 2°51.088 5 33 10.6 102070 38
2010-05-17 07:28:04 51°18.418 2°51.084 5.5 317 10.6 102080 37
2010-05-17 07:28:10 51°18.423 2°51.078 5.9 317 10.6 102080 37
2010-05-17 07:28:14 51°18.426 2°51.074 5.9 278 10.6 102080 36
2010-05-17 07:28:20 51°18.431 2°51.068 6 37 10.6 102080 36
2010-05-17 07:28:24 51°18.435 2°51.064 6.1 23 10.6 102070 38
2010-05-17 07:28:30 51°18.44 2°51.059 5.9 30 10.6 102070 38
2010-05-17 07:28:34 51°18.443 2°51.055 6.4 22 10.6 102070 37
2010-05-17 07:28:40 51°18.448 2°51.05 5.7 40 10.6 102070 37
2010-05-17 07:28:44 51°18.451 2°51.047 6.1 25 10.6 102070 37
2010-05-17 07:28:50 51°18.457 2°51.042 6.4 32 10.6 102070 37
2010-05-17 07:28:54 51°18.46 2°51.038 6.5 24 10.6 102080 37
2010-05-17 07:29:00 51°18.465 2°51.033 5.8 30 10.6 102080 37
2010-05-17 07:29:04 51°18.468 2°51.031 5.6 281 10.6 102070 36
2010-05-17 07:29:10 51°18.472 2°51.026 5.5 32 10.6 102070 36
2010-05-17 07:29:13 51°18.474 2°51.024 5.1 20 10.6 102070 39
2010-05-17 07:29:20 51°18.479 2°51.02 5.6 40 10.6 102070 39
2010-05-17 07:29:24 51°18.481 2°51.017 5 23 10.6 102080 36
2010-05-17 07:29:29 51°18.484 2°51.014 5.4 33 10.6 102080 36
2010-05-17 07:29:34 51°18.486 2°51.011 5 279 10.5 102070 38
2010-05-17 07:29:40 51°18.488 2°51.008 5 37 10.5 102070 38
2010-05-17 07:29:44 51°18.49 2°51.006 4.6 280 10.6 102080 35
2010-05-17 07:29:50 51°18.491 2°51.003 4.8 234 10.6 102080 35
2010-05-17 07:29:54 51°18.492 2°51.002 5.2 28 10.6 102080 39
2010-05-17 07:30:00 51°18.494 2°50.999 4.9 35 10.6 102080 39
2010-05-17 07:30:05 51°18.495 2°50.997 4.9 24 10.6 102080 37
2010-05-17 07:30:10 51°18.496 2°50.995 4.9 31 10.6 102080 37
2010-05-17 07:30:14 51°18.496 2°50.994 4.8 284 10.6 102080 37
2010-05-17 07:30:20 51°18.497 2°50.991 4.9 34 10.6 102080 37
2010-05-17 07:30:24 51°18.498 2°50.99 5.1 22 10.6 102080 39
2010-05-17 07:30:30 51°18.499 2°50.987 5.1 38 10.6 102080 39
2010-05-17 07:30:34 51°18.5 2°50.986 4.2 278 10.6 102090 36
2010-05-17 07:30:40 51°18.5 2°50.983 4.4 33 10.6 102090 36
2010-05-17 07:30:44 51°18.501 2°50.982 4.9 22 10.6 102080 37
2010-05-17 07:30:50 51°18.502 2°50.979 4.9 32 10.6 102080 37
2010-05-17 07:30:54 51°18.502 2°50.978 4.7 28 10.6 102090 37
2010-05-17 07:31:00 51°18.503 2°50.975 4.4 32 10.6 102090 37
2010-05-17 07:31:04 51°18.503 2°50.974 4.3 284 10.6 102080 38
2010-05-17 07:31:10 51°18.504 2°50.971 4.5 33 10.6 102080 38
2010-05-17 07:31:14 51°18.504 2°50.97 4.6 20 10.6 102090 37
2010-05-17 07:31:20 51°18.505 2°50.967 4.6 33 10.6 102090 37
2010-05-17 07:31:24 51°18.505 2°50.966 4.3 22 10.6 102080 39
2010-05-17 07:31:30 51°18.505 2°50.963 4.5 40 10.6 102080 39
2010-05-17 07:31:34 51°18.506 2°50.962 4.8 284 10.6 102080 36
2010-05-17 07:31:40 51°18.506 2°50.959 5.3 34 10.6 102080 36
2010-05-17 07:31:44 51°18.506 2°50.958 4.9 283 10.6 102080 36
2010-05-17 07:31:50 51°18.507 2°50.955 4.9 34 10.6 102080 36
2010-05-17 07:31:54 51°18.507 2°50.954 5.3 27 10.6 102090 39
2010-05-17 07:32:00 51°18.507 2°50.952 4.7 40 10.6 102090 39
2010-05-17 07:32:04 51°18.507 2°50.95 4.7 279 10.6 102080 38
2010-05-17 07:32:10 51°18.508 2°50.948 4.9 38 10.6 102080 38
2010-05-17 07:32:14 51°18.508 2°50.946 4.8 278 10.6 102080 37
2010-05-17 07:32:19 51°18.508 2°50.944 4.4 36 10.6 102080 37
2010-05-17 07:32:24 51°18.508 2°50.943 4.8 25 10.6 102090 36
2010-05-17 07:32:30 51°18.508 2°50.941 4.3 35 10.6 102090 36
2010-05-17 07:32:33 51°18.508 2°50.94 4.5 284 10.6 102090 38
2010-05-17 07:32:39 51°18.508 2°50.937 4.8 40 10.6 102090 38
2010-05-17 07:32:44 51°18.508 2°50.936 5.1 27 10.7 102090 38
2010-05-17 07:32:49 51°18.508 2°50.934 4.7 33 10.7 102090 38
2010-05-17 07:32:54 51°18.508 2°50.933 4.9 28 10.6 102090 36
2010-05-17 07:33:00 51°18.509 2°50.931 4.6 231 10.6 102090 36
2010-05-17 07:33:04 51°18.508 2°50.929 4.7 284 10.7 102090 37
2010-05-17 07:33:09 51°18.508 2°50.928 4.5 33 10.7 102090 37
2010-05-17 07:33:14 51°18.508 2°50.927 4 281 10.7 102090 39
2010-05-17 07:33:19 51°18.508 2°50.925 4.2 33 10.7 102090 39
2010-05-17 07:33:24 51°18.508 2°50.924 4.6 283 10.6 102090 38
2010-05-17 07:33:29 51°18.508 2°50.922 3.9 34 10.6 102090 38
2010-05-17 07:33:33 51°18.508 2°50.921 4.1 25 10.7 102090 36
2010-05-17 07:33:39 51°18.508 2°50.919 4.6 38 10.7 102090 36
2010-05-17 07:33:44 51°18.508 2°50.918 4.7 25 10.7 102090 38
2010-05-17 07:33:49 51°18.508 2°50.916 5 35 10.7 102090 38
2010-05-17 07:33:54 51°18.509 2°50.914 5 26 10.7 102090 38
2010-05-17 07:33:59 51°18.509 2°50.913 4.9 38 10.7 102090 38
2010-05-17 07:34:04 51°18.51 2°50.91 5.1 282 10.7 102090 39
2010-05-17 07:34:09 51°18.512 2°50.908 4.7 32 10.7 102090 39
2010-05-17 07:34:15 51°18.515 2°50.904 4.7 284 10.7 102090 39
2010-05-17 07:34:20 51°18.517 2°50.901 4.9 38 10.7 102090 39
2010-05-17 07:34:24 51°18.52 2°50.899 5.3 28 10.7 102090 38
2010-05-17 07:34:30 51°18.525 2°50.895 5.9 33 10.7 102090 38
2010-05-17 07:34:34 51°18.529 2°50.893 5.9 23 10.7 102090 36
2010-05-17 07:34:40 51°18.536 2°50.889 5.9 35 10.7 102090 36
2010-05-17 07:34:44 51°18.54 2°50.888 5.7 28 10.7 102090 37
2010-05-17 07:34:50 51°18.549 2°50.887 6.2 236 10.7 102090 37
2010-05-17 07:34:54 51°18.554 2°50.887 6 28 10.7 102090 36
2010-05-17 07:35:00 51°18.563 2°50.889 6.1 240 10.7 102090 36
2010-05-17 07:35:04 51°18.569 2°50.892 5.6 28 10.7 102080 35
2010-05-17 07:35:10 51°18.578 2°50.898 6.1 242 10.7 102080 35
2010-05-17 07:35:14 51°18.584 2°50.904 6.2 283 10.7 102080 36
2010-05-17 07:35:20 51°18.593 2°50.914 5.7 246 10.7 102080 36
2010-05-17 07:35:24 51°18.599 2°50.923 5.4 23 10.7 102070 39
2010-05-17 07:35:30 51°18.608 2°50.937 5 248 10.7 102070 39
2010-05-17 07:35:34 51°18.613 2°50.949 5 246 10.7 102080 38
2010-05-17 07:35:40 51°18.621 2°50.967 4.8 247 10.7 102080 38
2010-05-17 07:35:44 51°18.626 2°50.98 5.2 283 10.7 102090 36
2010-05-17 07:35:50 51°18.635 2°50.999 4.7 246 10.7 102090 36
2010-05-17 07:35:54 51°18.64 2°51.012 4.5 247 10.7 102090 39
2010-05-17 07:36:00 51°18.649 2°51.033 5 240 10.7 102090 39
2010-05-17 07:36:04 51°18.655 2°51.047 5.2 21 10.8 102090 36
2010-05-17 07:36:10 51°18.664 2°51.069 5.1 239 10.8 102090 36
2010-05-17 07:36:14 51°18.67 2°51.084 5 29 10.7 102080 37
2010-05-17 07:36:20 51°18.679 2°51.107 4.7 237 10.7 102080 37
2010-05-17 07:36:24 51°18.685 2°51.124 5.5 285 10.8 102090 38
2010-05-17 07:36:29 51°18.693 2°51.144 5.4 240 10.8 102090 38
2010-05-17 07:36:34 51°18.701 2°51.165 5.4 283 10.8 102090 36
2010-05-17 07:36:40 51°18.711 2°51.191 4.8 241 10.8 102090 36
2010-05-17 07:36:44 51°18.716 2°51.21 3.3 26 10.8 102090 38
2010-05-17 07:36:49 51°18.724 2°51.233 4.6 240 10.8 102090 38
2010-05-17 07:36:54 51°18.73 2°51.258 4.6 22 10.8 102090 36
2010-05-17 07:36:59 51°18.736 2°51.282 5 241 10.8 102090 36
2010-05-17 07:37:04 51°18.742 2°51.308 4.3 21 10.8 102090 36
2010-05-17 07:37:09 51°18.747 2°51.334 5 240 10.8 102090 36
2010-05-17 07:37:14 51°18.753 2°51.359 4.1 281 10.8 102090 39
2010-05-17 07:37:19 51°18.757 2°51.386 4.7 240 10.8 102090 39
2010-05-17 07:37:24 51°18.763 2°51.411 4.6 28 10.8 102090 39
2010-05-17 07:37:29 51°18.767 2°51.438 4.8 241 10.8 102090 39
2010-05-17 07:37:34 51°18.773 2°51.464 3.7 279 10.8 102090 36
2010-05-17 07:37:39 51°18.777 2°51.491 4 32 10.8 102090 36
2010-05-17 07:37:44 51°18.782 2°51.517 4 279 10.8 102090 35
2010-05-17 07:37:49 51°18.786 2°51.543 4.8 241 10.8 102090 35
2010-05-17 07:37:53 51°18.79 2°51.565 4.4 23 10.8 102090 38
2010-05-17 07:37:59 51°18.796 2°51.597 4.2 240 10.8 102090 38
2010-05-17 07:38:04 51°18.801 2°51.623 4.5 26 10.8 102100 38
2010-05-17 07:38:09 51°18.805 2°51.65 4.2 237 10.8 102100 38
2010-05-17 07:38:14 51°18.81 2°51.675 4.1 280 10.8 102090 39
2010-05-17 07:38:19 51°18.815 2°51.702 4.3 237 10.8 102090 39
2010-05-17 07:38:25 51°18.821 2°51.734 4 281 10.8 102100 36
2010-05-17 07:38:30 51°18.826 2°51.761 3.5 241 10.8 102100 36
2010-05-17 07:38:34 51°18.83 2°51.782 4.4 21 10.8 102100 38
2010-05-17 07:38:40 51°18.835 2°51.814 4.8 31 10.8 102100 38
2010-05-17 07:38:44 51°18.839 2°51.835 4.3 283 10.8 102100 37
2010-05-17 07:38:50 51°18.845 2°51.867 4.4 240 10.8 102100 37
2010-05-17 07:38:54 51°18.849 2°51.889 4.3 21 10.8 102100 38
2010-05-17 07:39:00 51°18.855 2°51.921 4.4 237 10.8 102100 38
2010-05-17 07:39:04 51°18.859 2°51.942 4.6 22 10.8 102090 36
2010-05-17 07:39:10 51°18.865 2°51.974 4 239 10.8 102090 36
2010-05-17 07:39:14 51°18.869 2°51.995 4.3 20 10.8 102090 36
2010-05-17 07:39:20 51°18.875 2°52.027 3.7 239 10.8 102090 36
2010-05-17 07:39:24 51°18.879 2°52.048 4.4 23 10.8 102100 37
2010-05-17 07:39:30 51°18.885 2°52.079 3.9 236 10.8 102100 37
2010-05-17 07:39:34 51°18.889 2°52.101 4.5 277 10.8 102100 36
2010-05-17 07:39:40 51°18.896 2°52.132 4.3 239 10.8 102100 36
2010-05-17 07:39:44 51°18.899 2°52.153 4.3 26 10.8 102090 36
2010-05-17 07:39:50 51°18.905 2°52.185 4.1 32 10.8 102090 36
2010-05-17 07:39:54 51°18.909 2°52.206 4.9 22 10.8 102100 36
2010-05-17 07:40:00 51°18.915 2°52.238 5 241 10.8 102100 36
2010-05-17 07:40:04 51°18.919 2°52.258 4.5 21 10.8 102100 38
2010-05-17 07:40:10 51°18.925 2°52.29 4.4 239 10.8 102100 38
2010-05-17 07:40:14 51°18.929 2°52.311 4.6 20 10.8 102100 39
2010-05-17 07:40:20 51°18.936 2°52.342 4.2 241 10.8 102100 39
2010-05-17 07:40:24 51°18.939 2°52.364 4.3 279 10.8 102090 35
2010-05-17 07:40:30 51°18.945 2°52.395 4.5 239 10.8 102090 35
2010-05-17 07:40:34 51°18.95 2°52.416 4.6 22 10.8 102100 37
2010-05-17 07:40:39 51°18.955 2°52.442 5 237 10.8 102100 37
2010-05-17 07:40:44 51°18.961 2°52.468 4.9 21 10.9 102100 37
2010-05-17 07:40:49 51°18.965 2°52.494 5 32 10.9 102100 37
2010-05-17 07:40:54 51°18.971 2°52.52 5.4 22 10.9 102100 36
2010-05-17 07:41:00 51°18.977 2°52.552 4.8 239 10.9 102100 36
2010-05-17 07:41:04 51°18.981 2°52.573 4.9 28 10.9 102100 36
2010-05-17 07:41:10 51°18.988 2°52.605 4.6 240 10.9 102100 36
2010-05-17 07:41:14 51°18.992 2°52.626 4.7 278 10.9 102090 39
2010-05-17 07:41:20 51°18.998 2°52.658 4.7 237 10.9 102090 39
2010-05-17 07:41:24 51°19.002 2°52.68 4.3 29 10.9 102100 38
2010-05-17 07:41:30 51°19.009 2°52.711 4.7 238 10.9 102100 38
2010-05-17 07:41:34 51°19.013 2°52.733 4.3 283 10.9 102090 39
2010-05-17 07:41:40 51°19.02 2°52.765 4.9 240 10.9 102090 39
2010-05-17 07:41:44 51°19.024 2°52.786 4.9 19 10.9 102090 39
2010-05-17 07:41:50 51°19.03 2°52.818 4.7 30 10.9 102090 39
2010-05-17 07:41:54 51°19.035 2°52.839 4.6 26 10.9 102100 39
2010-05-17 07:42:00 51°19.041 2°52.871 4.9 237 10.9 102100 39
2010-05-17 07:42:04 51°19.045 2°52.892 4.3 24 10.9 102100 39
2010-05-17 07:42:10 51°19.051 2°52.924 5.3 240 10.9 102100 39
2010-05-17 07:42:14 51°19.055 2°52.945 5.2 23 10.9 102100 39
2010-05-17 07:42:20 51°19.062 2°52.977 5 32 10.9 102100 39
2010-05-17 07:42:24 51°19.066 2°52.998 4.9 286 10.9 102100 36
2010-05-17 07:42:30 51°19.072 2°53.03 4.5 239 10.9 102100 36
2010-05-17 07:42:34 51°19.077 2°53.052 4.7 23 10.9 102100 36
2010-05-17 07:42:39 51°19.082 2°53.078 4.1 33 10.9 102100 36
2010-05-17 07:42:44 51°19.088 2°53.104 4.8 27 10.9 102100 36